Location: A�t Bou Chrif
(32.7193°N, 5.2385°W)
Time: 02:59:38
(UTC+00:00)

Cosmos 1633 Rocket - Pass Details

Date: 08 August 2020
Orbit: 606 x 624 km, 82.5° (Epoch: 20 September)

Event Time Altitude Azimuth Distance (km) Brightness Sun altitude
Exits shadow 20:55:06 44° 93° (E) 864 3.4 -20.0°
Maximum altitude 20:55:07 44° 93° (E) 864 3.4 -20.0°
Drops below altitude 10° 20:59:20 10° 21° (NNE) 1,999 5.8 -20.7°
Sets 21:01:38 0° 15° (NNE) 2,908 6.8 -21.1°
